Satellite: AO-51
Catalog number: 28375
Epoch time:      04267.66342037
Element set:      67
Inclination:       98.2497 deg
RA of node:       334.2587 deg
Eccentricity:    0.0083733
Arg of perigee:   316.3698 deg
Mean anomaly:      43.0899 deg
Mean motion:   14.40390239 rev/day
Decay rate:        1.5e-07 rev/day^2
Epoch rev:            1224
Checksum:              319

/EX
SB KEPS @ AMSAT  $ORB04267.W
Orbital Elements  04267.WEATHER

HR AMSAT ORBITAL ELEMENTS FOR WEATHER SATELLITES
FROM WA5QGD FORT WORTH,TX September 23, 2004
SEND SUBSCRIBE/UNSUBSCRIBE TO majordomo@amsat.org ONLY
BID: ORB04267.W
TO ALL RADIO AMATEURS BT

Satellite: NOAA-10
Catalog number: 16969
Epoch time:      04267.43773819
Element set:     402
Inclination:       98.7605 deg
RA of node:       266.6364 deg
Eccentricity:    0.0012360
Arg of perigee:   185.2782 deg
Mean anomaly:     174.8277 deg
Mean motion:   14.27213199 rev/day
Decay rate:        4.6e-07 rev/day^2
Epoch rev:           93704
Checksum:              331

Satellite: NOAA-11
Catalog number: 19531
Epoch time:      04267.31313748
Element set:     260
Inclination:       98.8624 deg
RA of node:       350.5505 deg
Eccentricity:    0.0011227
Arg of perigee:   351.6472 deg
Mean anomaly:       8.4515 deg
Mean motion:   14.14728560 rev/day
Decay rate:      -1.04e-06 rev/day^2
Epoch rev:           82519
Checksum:              281

Satellite: NOAA-12
Catalog number: 21263
Epoch time:      04267.79520859
Element set:     747
Inclination:       98.6790 deg
RA of node:       254.5637 deg
Eccentricity:    0.0013615
Arg of perigee:   121.7151 deg
Mean anomaly:     238.5847 deg
Mean motion:   14.25413304 rev/day
Decay rate:        9.9e-07 rev/day^2
Epoch rev:           69433
Checksum:              322

Satellite: MET-3/5
Catalog number: 21655
Epoch time:      04267.82629886
Element set:     651
Inclination:       82.5605 deg
RA of node:       346.8365 deg
Eccentricity:    0.0013183
Arg of perigee:   174.0611 deg
Mean anomaly:     186.0669 deg
Mean motion:   13.16994679 rev/day
Decay rate:        5.1e-07 rev/day^2
Epoch rev:           63025
Checksum:              328

Satellite: MET-2/21
Catalog number: 22782
Epoch time:      04266.62530504
Element set:      11
Inclination:       82.5454 deg
RA of node:       113.2395 deg
Eccentricity:    0.0022858
Arg of perigee:   150.5643 deg
Mean anomaly:     209.6777 deg
Mean motion:   13.83569012 rev/day
Decay rate:      -1.16e-06 rev/day^2
Epoch rev:           55857
Checksum:              297

Satellite: OKEAN-4
Catalog number: 23317
Epoch time:      04266.91975822
Element set:    0453
Inclination:      082.5414 deg
RA of node:       146.5507 deg
Eccentricity:    0.0021433
Arg of perigee:   300.1184 deg
Mean anomaly:     059.7904 deg
Mean motion:   14.81888581 rev/day
Decay rate:       5.37e-06 rev/day^2
Epoch rev:           53632
Checksum:              305

Satellite: NOAA-14
Catalog number: 23455
Epoch time:      04267.78762245
Element set:     289
Inclination:       99.1316 deg
RA of node:       305.2502 deg
Eccentricity:    0.0009812
Arg of perigee:    35.0989 deg
Mean anomaly:     325.1305 deg
Mean motion:   14.13490239 rev/day
Decay rate:       1.66e-06 rev/day^2
Epoch rev:           50195
Checksum:              301

Satellite: SICH-1
Catalog number: 23657
Epoch time:      04266.96512993
Element set:    0296
Inclination:      082.5261 deg
RA of node:       287.3089 deg
Eccentricity:    0.0022567
Arg of perigee:   282.7342 deg
Mean anomaly:     077.1350 deg
Mean motion:   14.80921602 rev/day
Decay rate:       4.25e-06 rev/day^2
Epoch rev:           48840
Checksum:              315

Satellite: NOAA-15
Catalog number: 25338
Epoch time:      04267.78739192
Element set:     738
Inclination:       98.5209 deg
RA of node:       278.1927 deg
Eccentricity:    0.0011495
Arg of perigee:    59.3785 deg
Mean anomaly:     300.9015 deg
Mean motion:   14.24452743 rev/day
Decay rate:       1.11e-06 rev/day^2
Epoch rev:           33083
Checksum:              320

Satellite: RESURS
Catalog number: 25394
Epoch time:      04267.21511578
Element set:     907
Inclination:       98.5738 deg
RA of node:       337.5706 deg
Eccentricity:    0.0001293
Arg of perigee:   170.1962 deg
Mean anomaly:     189.9242 deg
Mean motion:   14.24023700 rev/day
Decay rate:        5.0e-07 rev/day^2
Epoch rev:           32245
Checksum:              289

Satellite: FENGYUN1
Catalog number: 25730
Epoch time:      04267.65726602
Element set:     239
Inclination:       98.6072 deg
RA of node:       274.1595 deg
Eccentricity:    0.0015441
Arg of perigee:   138.6213 deg
Mean anomaly:     221.6132 deg
Mean motion:   14.11778567 rev/day
Decay rate:       1.39e-06 rev/day^2
Epoch rev:           27690
Checksum:              299

Satellite: OKEAN-0
Catalog number: 25860
Epoch time:      04266.96526662
Element set:    0283
Inclination:      097.7907 deg
RA of node:       298.2033 deg
Eccentricity:    0.0001647
Arg of perigee:   050.2146 deg
Mean anomaly:     309.9207 deg
Mean motion:   14.73117420 rev/day
Decay rate:       1.97e-06 rev/day^2
Epoch rev:           27866
Checksum:              312

Satellite: NOAA-16
Catalog number: 26536
Epoch time:      04267.82049179
Element set:      34
Inclination:       98.9733 deg
RA of node:       219.3031 deg
Eccentricity:    0.0011336
Arg of perigee:    97.1332 deg
Mean anomaly:     263.1606 deg
Mean motion:   14.12155438 rev/day
Decay rate:       2.52e-06 rev/day^2
Epoch rev:           20646
Checksum:              287

